Theta_e
304 302 302 303 305 307 306 307 306 306 306 306 306 307 308 308 308 307 308 308 307 306 306 306 306 309 309 307 307 308 307 303 306 309 310 309 310 311 312 312 311 312 313 313 314 321 329 312 317 320 315 312 312 312
303 303 303 304 308 308 307 307 306 306 306 306 306 307 308 308 308 308 308 308 308 307 307 307 307 307 307 308 309 307 308 308 308 309 308 308 311 309 311 314 310 317 312 314 315 316 312 311 313 311 312 312 312 312
303 303 304 307 308 308 308 308 307 306 306 307 307 308 308 308 309 308 308 308 306 305 302 303 307 308 307 307 307 308 308 308 308 305 306 308 310 307 312 313 314 312 310 312 311 311 312 313 313 312 313 313 313 313
303 303 305 309 308 308 309 308 307 307 307 307 308 308 308 308 309 308 308 307 306 302 303 306 307 308 307 306 306 307 308 307 305 302 306 307 309 307 309 308 312 312 311 310 310 312 313 314 313 312 314 313 313 314
303 303 306 309 309 310 310 307 307 307 308 308 308 308 308 309 309 309 308 307 307 305 306 304 304 308 306 305 305 305 305 303 304 305 305 306 306 305 307 307 310 310 312 313 313 312 313 313 313 314 314 313 313 314
303 304 308 310 309 310 312 309 308 309 309 309 310 310 309 310 310 312 306 308 307 307 305 309 304 307 306 306 304 303 303 302 302 303 304 303 303 306 307 310 310 309 309 310 311 310 311 311 311 311 312 313 313 313
303 305 309 310 310 311 312 310 310 310 310 310 311 311 311 311 311 309 306 307 308 306 304 313 311 307 307 306 303 302 301 300 303 305 304 304 304 304 306 310 311 310 308 308 308 309 310 310 311 311 311 312 312 312
304 305 310 310 310 311 312 312 310 310 310 309 310 311 310 309 308 309 307 307 306 305 303 311 316 314 308 308 308 301 302 302 303 305 305 306 305 304 309 308 310 309 309 307 307 308 308 308 307 308 309 312 313 313
304 306 310 311 310 310 313 312 311 310 310 310 310 311 311 310 309 310 307 307 307 306 306 310 313 320 309 310 307 303 301 310 304 308 308 306 306 309 308 308 309 309 308 307 307 306 307 306 307 307 307 308 311 312
304 307 311 311 311 310 313 313 312 310 309 309 309 313 311 310 308 307 308 308 308 307 303 309 307 317 312 313 315 311 308 311 312 311 308 307 306 307 306 306 306 308 308 306 305 306 306 306 306 306 306 305 306 307
304 307 311 311 311 311 313 314 313 312 310 310 311 311 311 309 310 311 315 313 309 314 307 306 308 311 310 317 317 313 313 311 312 311 312 310 305 306 305 304 304 307 307 305 304 304 304 305 305 305 304 304 303 303
305 308 311 311 312 311 314 314 313 311 313 313 313 312 310 310 311 313 309 308 310 313 309 312 313 313 311 311 312 313 317 312 313 306 310 304 307 306 305 304 304 305 306 305 304 303 303 303 302 303 303 303 303 302
305 307 309 312 312 316 313 312 313 312 312 312 312 313 314 311 306 311 306 309 309 307 308 310 312 313 311 309 315 317 315 311 305 309 310 305 305 305 304 303 303 303 306 305 304 303 303 302 302 302 301 302 302 302
306 307 308 312 315 316 314 312 313 312 312 312 318 312 312 310 310 309 309 307 306 305 306 305 312 312 309 313 308 313 309 306 309 309 306 304 304 304 303 303 302 303 304 305 305 304 303 303 302 302 301 301 301 301
307 308 310 315 317 317 312 313 313 312 313 315 313 309 311 309 307 307 305 305 305 303 304 312 308 307 308 310 306 307 309 306 304 306 306 304 304 303 304 303 301 302 301 304 305 304 303 303 303 303 303 301 301 300
308 310 318 318 316 312 313 314 312 313 315 316 316 314 308 308 308 307 307 306 303 304 303 305 308 308 310 308 310 312 308 303 306 306 304 301 302 303 304 303 301 302 301 301 306 305 304 303 303 303 304 304 302 300
308 314 312 308 309 313 314 314 314 315 317 317 313 307 307 308 309 307 305 306 302 304 307 306 311 312 304 308 310 305 306 304 302 301 298 298 300 302 302 303 303 301 301 302 305 305 305 304 304 303 301 302 301 303
307 307 307 309 314 313 317 315 317 319 319 313 315 314 309 307 308 306 306 304 304 304 305 308 305 308 308 309 306 303 302 300 298 298 297 298 298 298 298 297 303 300 302 301 301 303 303 303 302 299 296 298 299 298
308 310 314 315 317 315 316 319 317 317 316 312 310 309 309 309 310 309 309 305 303 303 303 304 307 306 306 303 304 302 301 299 299 299 298 299 299 299 298 299 301 300 298 298 297 297 298 299 297 296 297 296 296 296
313 318 320 321 319 316 321 320 317 315 317 314 309 312 310 311 311 311 310 309 307 309 310 310 307 305 305 304 301 301 299 297 298 299 299 299 300 298 297 297 299 299 297 296 297 298 298 297 297 297 296 296 296 296
318 321 320 316 316 315 316 317 315 314 314 314 311 313 314 314 316 313 311 306 311 311 311 307 306 304 306 305 302 301 300 299 299 299 300 299 300 296 297 298 297 298 296 296 296 296 297 296 297 296 297 297 297 297
319 320 320 319 319 320 318 319 316 311 314 315 316 315 317 317 315 315 312 315 313 308 307 308 307 311 310 307 305 303 303 303 302 299 298 298 296 295 295 296 297 296 298 298 297 296 297 297 297 296 297 297 297 298
320 321 321 322 323 313 315 315 315 316 319 319 315 318 317 317 313 312 315 313 313 311 310 310 311 311 310 307 305 305 305 304 297 296 296 296 296 296 296 296 297 297 297 297 296 297 297 298 298 296 297 297 297 297
321 321 321 321 317 316 315 317 317 319 316 316 316 319 317 315 311 312 315 313 312 310 309 311 312 306 305 306 305 306 306 302 298 297 297 297 295 295 295 296 296 297 297 297 297 297 298 298 298 297 297 297 297 297
313 314 311 306 312 318 318 320 319 318 319 318 319 318 315 312 313 313 315 311 309 310 311 309 306 305 304 303 300 301 301 299 298 296 297 297 295 294 294 295 296 297 298 298 297 297 297 297 297 298 298 297 296 296
314 319 314 318 318 318 319 319 320 320 318 319 319 316 314 314 316 315 313 310 310 310 309 309 307 306 304 302 298 298 300 301 299 297 297 298 296 295 294 294 294 295 296 297 297 297 297 297 297 297 297 297 296 297
316 321 315 312 314 317 318 319 317 317 320 320 319 316 318 316 315 311 308 308 309 312 312 310 309 304 300 299 301 304 305 301 299 299 299 298 297 297 296 298 296 295 296 296 296 296 297 297 296 296 296 296 296 297
319 319 321 318 318 318 320 319 319 318 319 317 314 317 317 314 313 308 308 311 312 313 308 303 302 302 301 303 299 299 299 298 298 298 299 298 297 298 298 296 296 298 297 295 296 297 297 297 296 296 296 296 296 296
320 320 319 321 319 319 319 319 318 315 314 314 315 316 314 310 309 310 313 309 311 311 299 299 298 298 298 297 297 298 298 297 297 297 296 296 295 296 295 296 298 298 296 295 295 296 296 297 296 296 296 296 296 295
317 315 319 320 321 322 320 315 316 314 313 313 311 310 309 310 312 308 305 305 306 305 300 299 298 298 296 295 294 294 295 295 296 296 293 293 293 295 296 297 297 297 296 296 296 296 296 296 295 295 295 295 295 295
316 317 319 319 319 317 317 313 313 314 314 313 310 310 311 310 307 302 301 301 300 300 299 297 296 296 295 295 294 293 293 293 294 294 294 295 295 296 296 297 296 297 297 296 296 295 295 295 294 294 295 295 295 295
318 320 320 320 319 315 312 314 314 314 314 314 314 312 311 312 311 305 303 300 299 299 298 298 297 296 295 295 295 294 294 293 292 293 294 296 296 296 296 296 296 296 296 296 296 296 295 295 295 294 294 295 295 295
319 318 317 316 316 316 314 316 316 316 315 315 315 314 313 313 312 304 302 302 301 300 299 298 297 296 296 296 295 295 293 293 292 292 293 294 295 295 295 295 296 296 295 295 295 295 295 295 295 294 294 294 294 293
Wind_Speed
21 23 25 25 25 25 22 20 19 18 16 13 11 7 4 3 2 4 0 4 4 2 4 2 3 3 1 2 0 4 4 3 3 2 2 2 3 1 1 6 9 5 5 5 5 5 4 18 9 6 1 4 5 8
22 25 25 25 24 23 22 20 19 18 15 11 6 5 3 0 3 5 2 2 5 2 4 9 12 9 6 3 2 1 2 3 2 3 2 3 3 5 8 3 2 3 1 1 1 2 11 13 9 3 5 4 5 8
23 25 26 24 23 23 22 20 18 15 11 7 5 4 2 1 3 3 3 3 2 1 4 4 3 6 7 7 3 0 1 2 3 1 3 2 3 3 3 3 1 3 7 1 4 2 11 11 2 4 6 4 8 7
24 25 25 23 22 22 21 18 16 11 7 6 3 3 1 2 5 3 1 3 1 3 1 3 5 4 8 10 6 3 3 3 2 2 2 2 3 5 4 4 4 4 7 5 2 3 11 7 13 11 12 6 8 7
24 26 25 22 21 20 20 17 12 7 6 6 5 4 5 4 4 2 1 3 1 2 2 3 3 2 6 9 12 11 9 3 3 3 3 4 3 4 2 1 4 6 4 3 2 8 7 9 13 16 14 10 8 10
24 25 23 21 18 18 19 14 6 7 7 8 6 5 5 4 2 2 3 3 3 2 2 3 1 4 3 4 9 9 7 3 2 2 2 2 3 4 3 3 11 13 11 9 4 13 8 11 11 14 14 15 14 10
24 24 22 19 16 15 16 9 4 6 6 5 3 2 1 1 2 1 2 4 3 1 1 3 3 3 7 1 4 2 5 2 2 1 2 1 2 4 3 5 8 10 12 14 13 11 7 11 10 15 13 14 16 16
23 24 20 19 15 12 13 8 1 3 3 2 1 1 1 3 4 3 2 2 0 0 2 2 2 1 8 2 1 1 2 2 3 1 2 2 2 1 3 7 5 10 11 13 16 14 12 12 12 14 19 15 11 10
23 23 19 17 15 10 11 8 2 3 3 3 3 5 4 2 1 3 2 2 2 1 1 1 1 3 3 1 2 1 1 2 1 2 1 1 3 3 4 6 4 5 6 9 11 12 12 16 16 16 16 17 15 13
23 22 19 17 15 9 7 8 4 2 4 4 3 1 2 1 1 1 2 1 1 1 0 3 1 2 2 2 1 3 1 2 2 0 0 3 3 4 4 6 4 4 5 7 13 15 11 12 14 16 15 13 13 13
22 21 19 17 14 8 4 7 4 3 3 2 1 1 1 1 3 1 2 1 2 3 2 3 4 2 1 1 0 1 2 1 2 2 0 1 3 4 6 7 5 2 6 5 4 6 9 9 9 11 13 14 18 20
23 21 19 17 10 5 4 7 5 4 2 2 1 1 0 1 1 1 2 2 0 3 2 2 3 3 2 1 2 0 1 1 2 0 2 1 3 5 5 5 5 2 3 4 4 5 9 13 15 12 10 12 16 19
23 22 21 16 4 3 9 8 6 8 2 1 1 1 3 1 5 2 3 4 3 3 3 1 3 2 0 1 1 1 2 1 2 2 1 4 3 4 4 3 4 1 7 6 2 1 3 5 11 12 13 16 15 18
24 25 24 12 6 6 14 11 7 6 4 2 1 4 2 4 4 4 5 4 5 4 4 1 1 1 1 1 1 3 2 3 2 1 3 3 4 5 6 1 2 4 4 6 5 4 2 1 4 11 14 18 16 17
26 28 19 7 3 11 15 10 6 8 4 2 2 3 5 4 4 4 2 3 4 2 1 1 1 2 2 3 3 3 2 1 4 4 3 3 5 4 5 3 4 5 2 5 6 4 3 5 7 10 10 16 17 16
27 19 0 4 13 17 13 2 9 4 2 2 3 2 2 1 4 3 2 4 1 1 1 2 2 3 3 1 2 1 2 3 3 2 3 3 4 4 5 2 4 5 5 4 8 8 5 4 5 8 12 8 7 11
24 3 10 19 20 10 2 4 5 4 3 3 4 3 3 3 5 4 3 4 1 2 1 2 2 1 1 2 2 3 3 3 3 3 3 3 4 6 6 6 6 2 1 2 6 10 9 5 7 9 10 8 8 6
14 16 27 19 8 1 3 5 3 3 5 4 2 3 3 3 3 3 4 2 3 3 3 2 3 2 2 2 2 3 3 3 3 3 4 5 6 9 7 7 5 2 5 3 2 2 3 3 5 6 6 6 4 6
33 23 5 4 2 2 3 3 4 3 5 2 3 2 3 3 2 2 2 1 4 3 3 2 3 3 3 3 3 2 2 3 2 2 3 8 9 11 12 7 3 6 8 4 2 3 3 4 3 3 6 7 6 7
9 2 2 4 3 2 1 3 2 1 3 3 2 3 2 1 3 2 3 2 1 3 3 3 4 2 3 2 4 3 3 3 2 2 4 4 7 8 9 10 6 7 9 5 5 7 8 6 6 6 8 9 12 11
4 3 6 1 2 3 1 1 2 4 2 2 1 2 2 3 3 3 3 1 3 3 3 2 1 1 7 9 7 5 5 7 3 3 3 3 7 8 8 7 5 5 3 5 5 6 6 5 3 6 9 12 13 13
3 7 2 2 0 1 2 5 3 2 1 2 2 2 3 3 3 3 3 3 2 2 0 2 2 3 5 6 5 4 2 6 4 2 1 3 3 3 5 6 6 5 4 2 2 4 5 4 3 8 10 11 13 16
6 2 2 1 0 2 5 1 1 2 2 4 3 3 3 3 3 4 3 1 1 1 4 5 4 12 12 13 7 11 12 9 5 5 4 6 7 7 7 9 8 6 6 7 2 5 7 5 5 12 10 9 12 14
3 2 1 0 2 3 3 2 1 2 3 4 4 4 4 3 4 3 2 2 1 3 2 3 3 3 3 2 1 5 11 10 9 5 7 11 6 3 5 7 8 8 7 5 5 8 8 8 10 11 8 10 12 12
3 3 3 4 1 1 2 2 3 3 2 3 4 3 3 2 3 2 2 3 3 2 3 6 4 1 1 3 4 2 5 9 6 6 8 8 7 6 4 8 10 9 9 7 6 8 8 9 10 9 7 6 8 9
1 3 5 3 1 2 1 1 1 1 0 1 2 2 2 2 3 3 2 2 2 2 3 3 3 3 3 1 1 1 2 8 8 2 4 8 8 5 4 2 4 5 8 7 5 4 5 8 10 9 11 6 5 7
1 3 3 2 2 3 1 1 1 2 0 3 1 1 2 3 2 3 3 3 2 3 6 6 5 5 7 12 10 6 8 12 9 5 2 7 4 4 6 11 5 3 7 7 5 2 6 10 10 10 8 5 3 6
5 2 4 2 2 2 2 2 2 3 4 2 3 2 2 3 3 3 3 4 5 9 4 9 11 14 14 11 8 10 5 5 6 16 14 10 10 5 3 9 13 11 11 7 8 7 5 7 7 9 10 9 7 4
3 2 3 3 1 1 3 5 5 3 3 4 4 3 3 2 2 2 6 14 5 8 16 17 14 16 20 21 23 20 11 9 4 5 6 3 4 7 10 12 12 8 3 3 5 6 6 11 12 10 9 8 6 5
4 4 3 3 4 4 3 5 3 3 2 3 3 2 2 1 3 6 3 4 9 12 13 11 10 13 14 18 18 21 20 19 16 9 3 2 3 3 10 3 1 3 2 4 7 9 10 10 9 10 9 8 7 7
2 2 2 2 2 2 2 4 4 3 2 2 1 3 2 1 3 6 5 8 12 15 14 15 15 13 15 15 14 12 11 13 13 12 10 8 8 5 1 2 6 10 6 4 6 8 8 8 8 8 8 8 7 8
4 6 5 3 2 1 1 2 2 2 2 2 0 1 1 2 1 2 2 6 7 7 9 14 16 11 12 15 15 14 13 13 13 12 11 11 13 13 11 11 9 8 7 7 7 7 6 7 7 7 6 6 6 6
1 2 2 4 2 3 3 3 2 2 2 2 3 4 3 4 4 3 2 8 5 9 12 14 16 17 16 14 14 13 13 14 14 14 13 11 9 12 12 11 11 11 10 9 9 9 8 7 7 7 7 6 6 6
Wind_Direction
351 346 344 343 343 341 342 340 340 340 339 338 339 335 329 332 227 199 122 233 196 222 286 285 284 284 234 203 360 295 318 331 324 315 295 293 274 293 224 105 139 164 202 189 194 209 214 352 339 72 26 52 335 340
348 346 345 345 343 341 341 339 341 344 343 345 351 355 4 28 167 164 122 68 235 234 269 303 287 313 292 310 232 7 299 319 317 317 331 309 336 344 8 77 214 189 331 218 18 314 325 306 300 44 46 323 322 335
348 346 347 345 342 342 342 344 346 348 352 10 24 40 82 154 143 132 147 149 121 355 303 342 345 26 26 15 17 199 293 301 328 21 323 324 354 332 346 54 54 40 29 43 20 2 313 300 271 355 351 311 299 327
347 346 347 344 343 344 345 348 352 357 5 11 12 98 109 108 146 156 100 162 182 102 73 291 351 24 9 39 56 209 283 336 10 27 4 360 337 3 356 341 7 355 329 333 253 289 328 215 333 336 334 311 304 324
348 346 346 344 345 348 349 355 358 10 359 40 57 137 131 126 136 107 81 180 87 97 269 282 328 23 49 47 57 70 61 50 15 10 358 1 344 345 344 267 18 355 346 357 298 309 293 292 312 323 328 320 325 329
347 346 346 343 347 352 356 4 37 52 67 77 92 107 138 150 137 328 5 213 240 8 63 326 157 172 178 45 52 37 46 73 80 61 3 347 307 336 348 13 20 1 358 348 328 335 341 342 342 341 321 315 316 310
346 347 344 342 345 354 1 12 83 87 88 92 84 82 115 201 267 270 210 313 199 254 103 295 329 185 174 122 350 10 33 48 56 72 44 2 354 360 348 11 3 349 355 357 3 336 357 8 350 344 338 313 306 303
347 344 340 336 340 347 2 1 106 144 129 126 48 16 298 291 276 276 258 154 211 349 95 283 284 134 176 160 164 61 42 17 18 71 1 346 320 357 27 330 16 356 341 359 5 5 3 349 13 14 1 353 337 329
346 344 337 332 332 335 356 355 329 210 214 220 272 295 287 256 288 334 217 233 291 127 240 245 225 324 176 113 120 72 92 67 316 41 342 349 327 42 297 318 342 20 7 340 359 1 2 13 6 18 17 6 1 352
345 343 335 328 326 323 339 348 315 254 228 250 285 272 320 332 11 326 231 275 212 168 56 247 268 280 173 176 150 126 166 139 132 109 72 41 323 286 305 317 311 7 3 348 21 19 6 12 9 5 19 17 12 4
343 341 329 325 322 311 316 347 309 246 221 233 238 231 283 216 327 236 298 33 305 274 211 234 201 245 253 160 228 180 149 98 90 106 116 56 312 277 326 335 343 334 11 0 10 24 20 12 14 16 11 21 24 16
341 338 329 323 319 314 315 323 307 225 238 208 308 300 360 14 353 344 286 308 185 252 239 213 231 209 245 187 105 37 85 116 83 232 86 348 250 265 316 333 336 232 106 20 14 17 6 9 8 15 14 22 30 29
339 335 326 318 286 333 330 313 293 237 238 290 118 15 62 304 13 70 318 306 319 273 253 298 288 181 31 77 147 159 111 111 114 53 177 224 249 276 292 329 335 209 170 154 169 138 56 25 20 6 358 358 20 36
337 331 323 303 202 321 335 320 277 209 186 146 163 320 152 296 243 206 205 225 248 235 295 245 228 198 186 103 145 88 174 115 96 94 262 256 254 280 303 293 323 328 214 187 189 220 260 19 24 32 23 16 11 35
335 330 317 196 235 322 333 323 206 175 171 202 122 252 224 246 253 244 227 292 253 236 326 133 50 118 10 69 29 66 37 339 177 209 222 238 270 281 289 322 327 320 325 212 211 225 281 322 342 345 4 19 16 8
335 333 164 276 308 318 327 236 159 185 198 177 219 262 238 340 287 299 237 262 246 334 74 38 63 44 14 58 36 33 78 240 263 231 239 278 276 272 283 293 282 295 284 264 215 230 233 288 319 334 339 335 356 7
336 260 309 312 316 321 296 169 166 202 218 211 254 207 187 246 230 237 190 245 167 68 28 75 55 243 110 41 297 181 208 222 222 275 280 262 270 283 287 295 293 322 273 229 231 241 243 258 291 323 328 314 340 303
322 303 301 304 312 293 187 201 226 201 246 237 215 250 209 218 218 251 237 204 122 137 139 206 127 131 174 210 253 250 250 261 247 261 278 284 286 306 313 298 288 167 148 178 156 275 307 270 300 336 344 6 19 1
314 313 295 262 324 255 169 218 199 243 240 240 263 258 231 263 240 308 300 199 106 102 97 76 137 189 221 205 203 216 234 231 252 293 282 297 304 318 329 334 222 170 149 184 154 74 105 118 58 60 94 68 60 22
313 337 6 295 262 200 293 278 212 234 267 251 258 266 232 251 302 304 344 349 65 106 99 21 298 254 187 236 195 185 179 186 135 342 313 312 345 348 348 334 298 182 142 146 111 113 128 108 61 86 92 77 59 44
318 316 330 293 198 202 204 263 270 214 273 249 292 18 315 333 337 2 38 295 74 55 356 21 312 259 14 302 285 175 170 170 192 203 235 299 337 347 346 356 334 178 155 145 126 111 119 111 123 117 90 71 65 63
303 323 279 266 149 148 272 230 216 264 262 275 359 34 11 2 352 7 307 44 40 16 347 96 11 40 288 280 272 235 158 187 219 207 170 278 356 27 27 22 55 84 118 210 211 145 161 147 150 147 115 97 78 67
317 310 269 293 30 40 265 345 329 351 315 299 3 37 9 357 334 323 49 142 216 166 190 129 184 246 263 297 241 209 200 182 156 152 123 110 106 102 82 55 46 40 21 2 310 167 160 150 146 143 128 101 85 68
316 318 35 282 150 260 333 327 338 343 343 17 13 9 5 352 326 37 357 309 269 282 243 264 271 335 321 324 256 240 212 197 151 149 160 156 140 105 74 62 54 44 30 24 87 129 137 143 153 142 112 92 76 66
48 311 90 297 233 300 289 343 348 29 358 360 8 336 343 8 20 348 328 288 345 334 304 322 328 347 282 279 291 302 167 159 176 224 193 187 148 127 103 81 73 60 53 39 76 104 118 130 150 138 117 81 76 72
117 237 156 221 253 170 244 265 236 243 223 346 294 281 18 39 356 304 268 267 283 290 314 301 292 317 314 274 316 98 197 220 233 198 222 209 200 178 151 98 45 42 54 48 135 107 130 152 155 138 129 121 105 90
272 266 227 225 166 115 95 65 63 105 236 231 223 57 28 345 298 268 286 259 257 318 324 334 342 37 44 21 5 322 288 272 217 204 195 177 207 183 98 60 295 35 45 29 360 302 170 145 135 127 123 135 124 74
223 223 198 206 198 194 177 135 148 217 214 174 111 169 201 207 255 246 233 295 326 348 55 82 87 107 70 51 3 0 16 156 140 118 114 105 115 71 47 106 89 56 16 34 48 63 118 137 128 123 113 97 72 64
237 230 148 251 183 227 212 192 202 221 164 148 168 194 217 218 230 276 318 334 22 123 121 110 86 91 85 72 62 59 73 117 65 48 64 62 46 51 94 90 46 48 353 36 70 62 111 109 107 112 110 108 117 91
252 168 178 194 185 228 236 175 185 127 145 145 124 78 6 315 357 349 11 78 94 117 130 114 109 96 88 84 70 58 52 51 55 75 100 64 8 82 153 151 108 149 161 98 112 104 100 113 102 100 94 99 97 94
128 141 218 206 236 253 192 125 89 93 88 84 89 125 166 190 63 64 91 112 124 130 123 105 101 103 100 88 83 77 60 60 65 66 64 58 48 47 342 85 141 154 173 159 157 114 103 108 107 96 96 94 75 77
181 201 166 205 258 29 120 99 124 98 93 96 73 95 73 66 90 298 154 168 147 123 129 134 124 119 108 100 90 83 83 84 75 71 67 66 72 83 82 91 106 120 127 112 102 93 103 100 93 85 94 107 90 88
255 123 142 124 131 200 218 111 85 109 115 152 194 178 176 164 202 212 65 193 192 162 146 139 133 130 121 106 94 91 98 92 82 73 68 68 87 90 84 82 88 90 95 90 91 98 97 101 94 94 96 93 100 90